DW8913 Weather Reports


time (UTC)temp
C
wind
direction
speed
KPH
gust
KPH
rain 1hr
cm
rain 24hr
cm
rain mn
cm
humidity
%
barometer
mb
20260508181603 19 56 3.2 16.1 0.00 0.03 0.00 50 1012.8
20260508180032 21 174 1.6 8.0 0.00 0.03 0.00 33 1012.9
20260508174619 21 68 1.6 8.0 0.00 0.03 0.00 34 1012.9
20260508173044 20 68 1.6 12.9 0.00 0.03 0.00 38 1013.2
20260508171517 20 79 1.6 8.0 0.00 0.03 0.00 35 1013.2
20260508170052 20 48 1.6 8.0 0.00 0.03 0.00 33 1013.5
20260508164524 20 79 1.6 8.0 0.00 0.03 0.00 35 1013.7
20260508163059 20 66 1.6 9.7 0.00 0.03 0.00 33 1013.9
20260508161539 20 285 1.6 8.0 0.00 0.03 0.00 34 1013.8
20260508160108 20 17 3.2 8.0 0.00 0.03 0.00 36 1013.9
20260508154541 20 347 1.6 9.7 0.00 0.03 0.00 35 1013.8
20260508153008 19 126 0.0 4.8 0.00 0.03 0.00 40 1014.0
20260508151556 19 13 0.0 4.8 0.00 0.03 0.00 37 1014.1
20260508150027 19 141 0.0 6.4 0.00 0.03 0.00 39 1014.2
20260508144604 19 345 0.0 4.8 0.00 0.03 0.00 39 1014.4
20260508143037 18 242 0.0 4.8 0.00 0.03 0.00 38 1014.4
20260508141510 17 327 0.0 3.2 0.00 0.03 0.00 40 1014.4
20260508140101 17 30 1.6 8.0 0.00 0.03 0.00 38 1014.5
20260508134525 17 91 0.0 6.4 0.00 0.03 0.00 40 1014.5
20260508133114 16 13 0.0 11.3 0.00 0.03 0.00 44 1014.6
20260508131539 16 229 0.0 3.2 0.00 0.03 0.00 46 1014.6
20260508130012 15 62 3.2 9.7 0.00 0.03 0.00 49 1014.5
20260508124550 14 41 0.0 9.7 0.00 0.03 0.00 58 1014.4
20260508123019 12 46 4.8 11.3 0.00 0.03 0.00 59 1014.3
20260508121603 11 107 1.6 8.0 0.00 0.03 0.00 65 1014.2
20260508120030 11 35 3.2 8.0 0.00 0.03 0.00 67 1014.0
20260508114615 10 23 3.2 12.9 0.00 0.03 0.00 68 1014.1
20260508113052 10 198 3.2 12.9 0.00 0.03 0.00 70 1013.7
20260508111507 10 6 1.6 9.7 0.00 0.03 0.00 72 1013.5
20260508110044 9 73 0.0 4.8 0.00 0.03 0.00 74 1013.5
20260508104512 9 33 0.0 6.4 0.00 0.03 0.00 74 1013.3
20260508103056 10 300 0.0 11.3 0.00 0.03 0.00 72 1012.9
20260508101542 10 15 3.2 12.9 0.00 0.03 0.00 73 1012.9
20260508100006 10 32 1.6 14.5 0.00 0.03 0.00 73 1012.7
20260508094543 10 349 3.2 11.3 0.00 0.03 0.00 75 1012.3
20260508093018 10 24 1.6 8.0 0.00 0.03 0.00 76 1012.0
20260508091627 10 282 1.6 6.4 0.00 0.03 0.00 77 1011.7
20260508090030 10 105 1.6 6.4 0.00 0.03 0.00 78 1011.4
20260508084606 10 309 1.6 6.4 0.00 0.03 0.00 78 1011.1
20260508083041 11 38 1.6 6.4 0.00 0.03 0.00 79 1010.9
20260508081509 11 14 1.6 8.0 0.00 0.03 0.00 79 1010.5
20260508080051 11 112 0.0 6.4 0.00 0.03 0.00 80 1010.3
20260508074511 11 155 0.0 4.8 0.00 0.05 0.00 82 1010.2
20260508073008 11 188 0.0 1.6 0.00 0.05 0.00 83 1010.0
20260508071547 11 38 0.0 1.6 0.00 0.05 0.00 83 1009.8
20260508070016 11 224 0.0 0.0 0.00 0.05 0.00 82 1009.7
20260508064557 11 58 0.0 6.4 0.00 0.05 0.00 84 1009.7
20260508063048 11 154 0.0 3.2 0.00 0.05 0.00 84 1009.7
20260508061503 10 231 0.0 1.6 0.00 0.05 0.00 84 1009.6
20260508060042 10 86 0.0 4.8 0.00 0.05 0.00 85 1009.6
20260508054514 10 102 0.0 3.2 0.00 0.05 0.00 86 1009.8
20260508053101 10 101 0.0 3.2 0.00 0.05 0.00 86 1009.8
20260508051530 10 123 0.0 1.6 0.00 0.05 0.00 86 1009.8
20260508050003 10 122 0.0 0.0 0.00 0.05 0.00 86 1009.9
20260508044548 10 123 0.0 0.0 0.00 0.05 0.00 87 1009.9
20260508043017 10 124 0.0 0.0 0.00 0.05 0.00 87 1009.8
20260508041558 10 124 0.0 1.6 0.00 0.05 0.00 87 1009.8
20260508040025 10 122 0.0 1.6 0.00 0.05 0.00 87 1009.7
20260508034612 10 115 0.0 4.8 0.00 0.05 0.05 87 1009.6
20260508033048 10 129 0.0 1.6 0.00 0.05 0.05 86 1009.6
20260508031508 10 40 0.0 1.6 0.00 0.05 0.05 86 1009.8
20260508030053 10 96 0.0 0.0 0.00 0.05 0.05 85 1009.7
20260508024524 10 116 0.0 3.2 0.00 0.05 0.05 85 1009.8
20260508023103 10 117 0.0 3.2 0.00 0.05 0.05 84 1009.7
20260508021538 11 155 0.0 3.2 0.00 0.05 0.05 85 1009.9
20260508020001 11 141 0.0 1.6 0.00 0.05 0.05 86 1009.7
20260508014545 11 190 0.0 1.6 0.00 0.05 0.05 85 1009.6
20260508013013 11 99 0.0 1.6 0.00 0.05 0.05 82 1009.6
20260508011556 11 154 0.0 3.2 0.00 0.05 0.05 81 1009.3
20260508010046 11 109 0.0 4.8 0.00 0.05 0.05 80 1009.0
20260508004612 11 163 0.0 1.6 0.00 0.05 0.05 80 1009.0
20260508003044 11 92 1.6 8.0 0.00 0.05 0.05 81 1008.9
20260508001515 12 154 0.0 4.8 0.00 0.05 0.05 80 1008.6
20260508000056 12 125 0.0 4.8 0.00 0.05 0.05 78 1008.5
20260507234524 12 111 0.0 4.8 0.00 0.05 0.05 77 1008.7
20260507233105 12 158 0.0 9.7 0.00 0.05 0.05 77 1008.5
20260507231541 12 87 1.6 14.5 0.00 0.05 0.05 75 1008.4
20260507230026 13 130 1.6 8.0 0.00 0.05 0.05 74 1008.4
20260507224554 13 120 0.0 4.8 0.00 0.05 0.05 70 1007.9
20260507223040 13 158 0.0 6.4 0.00 0.05 0.05 71 1008.2
20260507221603 13 246 1.6 8.0 0.00 0.05 0.05 71 1008.1
20260507220033 13 140 1.6 9.7 0.00 0.05 0.05 72 1008.4
20260507214510 13 124 1.6 9.7 0.00 0.05 0.05 74 1008.6
20260507213111 13 83 0.0 8.0 0.00 0.05 0.05 78 1008.5
20260507211523 13 113 1.6 9.7 0.00 0.05 0.05 80 1008.1
20260507210105 13 114 1.6 8.0 0.00 0.05 0.05 78 1008.2
20260507204533 13 214 1.6 9.7 0.00 0.05 0.05 77 1008.2
20260507203005 13 118 0.0 8.0 0.00 0.05 0.05 77 1008.1
20260507201559 13 160 1.6 6.4 0.03 0.05 0.05 75 1007.9
20260507200029 13 162 3.2 9.7 0.03 0.05 0.05 75 1008.4
20260507194602 13 143 0.0 6.4 0.03 0.05 0.05 79 1008.2
20260507193042 13 168 0.0 4.8 0.03 0.05 0.05 76 1008.4
20260507191503 13 134 1.6 8.0 0.00 0.03 0.03 74 1008.4
20260507190050 13 307 0.0 4.8 0.00 0.03 0.03 73 1009.0
20260507184515 13 214 0.0 4.8 0.00 0.03 0.03 74 1009.0
20260507183057 14 216 1.6 6.4 0.00 0.03 0.03 71 1008.9